{"data":{"norad_id":55775,"intl_designator":"2023-028AL","name":"STARLINK-5809","alt_names":[],"object_type":"PAYLOAD","status":"ACTIVE","operator":null,"country":"US","launch_date":"2023-03-03","launch_site_code":"AFWTR","launch_vehicle":null,"mission":null,"orbit_class":"UNKNOWN","rcs_meters":null,"size_class":null,"mass_kg":null,"dimensions":null,"purposes":["comms"],"wikipedia_slug":null,"has_3d_model":false,"image_url":null,"decayed_at":null,"tle_current":{"epoch":"2026-05-25T02:55:42.407040Z","epoch_age_seconds":60623,"freshness":"FRESH","line1":"1 55775U 23028AL  26145.12201860 -.00000700  00000+0 -50855-4 0  9997","line2":"2 55775  70.0006  31.6776 0002659 259.1039 100.9821 14.98337833177987","mean_motion":14.98337833,"eccentricity":0.0002659,"inclination_deg":70.0006,"raan_deg":31.6776,"arg_perigee_deg":259.1039,"mean_anomaly_deg":100.9821,"bstar":-5.0855e-5,"rev_number":17798,"period_min":96.106496698198,"perigee_km":570.18361829473,"apogee_km":573.87971799245,"semimajor_km":6950.1686681436,"source":"CELESTRAK","updated_at":"2026-05-25T13:38:17.884744Z"}}}